Location: Deneb Observatory
(47.2267°N, 100.4953°W)
Time: 04:22:48
(UTC-05:00)

Iridium 66 - Visible Passes

Search period start: 18 April 2014 00:00
Search period end: 28 April 2014 00:00
Orbit: 776 x 779 km, 86.4° (Epoch: 17 April)

Date Brightness Start Highest point End Pass type
(mag) Time Alt. Az. Time Alt. Az. Time Alt. Az.
18 Apr 7.3 21:29:52 10° NNE 21:34:03 24° ENE 21:37:18 14° ESE visible
18 Apr 6.8 23:10:02 10° NNW 23:15:03 49° W 23:17:47 25° SSW visible
19 Apr 6.0 22:36:21 10° N 22:41:36 85° W 22:44:45 25° S visible
20 Apr 8.7 00:19:34 10° NW 00:21:27 12° WNW 00:23:19 10° W visible
20 Apr 6.2 22:02:53 10° N 22:08:02 55° E 22:11:44 19° SSE visible
20 Apr 8.2 23:44:31 10° NNW 23:48:19 21° WNW 23:52:05 10° SW visible
21 Apr 6.8 21:29:39 10° NNE 21:34:19 32° ENE 21:38:44 11° SE visible
21 Apr 7.4 23:10:21 10° NNW 23:15:03 35° W 23:19:14 13° SW visible
22 Apr 6.5 22:36:32 10° N 22:41:40 61° W 22:46:16 13° SSW visible
23 Apr 6.0 22:02:56 10° N 22:08:10 78° E 22:13:19 10° S visible
23 Apr 8.6 23:45:20 10° NW 23:48:12 15° WNW 23:51:03 10° WSW visible
24 Apr 6.4 21:29:33 10° N 21:34:33 44° E 21:39:31 10° SSE visible
24 Apr 8.0 23:10:47 10° NNW 23:15:00 26° W 23:19:13 10° SW visible
25 Apr 7.1 22:36:47 10° NNW 22:41:42 43° W 22:46:36 10° SSW visible
26 Apr 6.2 22:03:03 10° N 22:08:16 76° W 22:13:28 10° S visible
26 Apr 8.9 23:47:06 10° WNW 23:48:01 10° WNW 23:48:57 10° W visible
27 Apr 6.1 21:29:32 10° N 21:34:43 62° E 21:39:52 10° SSE visible
27 Apr 8.5 23:11:23 10° NW 23:14:55 19° WNW 23:18:25 10° WSW visible
